| time (UTC) | temp C | wind direction | speed KPH | gust KPH | rain 1hr cm | rain 24hr cm | rain mn cm | humidity % | barometer mb |
| 20260504203806 | 12 | 0.0 | 0.0 | 0.00 | 0.00 | 0.00 | 43 | ||
| 20260504200806 | 11 | 0.0 | 0.0 | 0.00 | 0.00 | 0.00 | 45 | ||
| 20260504193804 | 12 | 0.0 | 0.0 | 0.00 | 0.00 | 0.00 | 46 | ||
| 20260504190806 | 12 | 0.0 | 0.0 | 0.00 | 0.00 | 0.00 | 44 | ||
| 20260504183803 | 12 | 0.0 | 0.0 | 0.00 | 0.00 | 0.00 | 43 | ||
| 20260504180806 | 13 | 0.0 | 0.0 | 0.00 | 0.00 | 0.00 | 42 | ||
| 20260504173803 | 13 | 0.0 | 0.0 | 0.00 | 0.00 | 0.00 | 41 | ||
| 20260504170804 | 14 | 0.0 | 0.0 | 0.00 | 0.00 | 0.00 | 41 | ||
| 20260504150804 | 16 | 0.0 | 0.0 | 0.00 | 0.00 | 0.00 | 39 | ||
| 20260504140804 | 17 | 0.0 | 0.0 | 0.00 | 0.00 | 0.00 | 39 | ||
| 20260504130807 | 18 | 0.0 | 0.0 | 0.00 | 0.00 | 0.00 | 47 | ||
| 20260504080806 | 23 | 0.0 | 0.0 | 0.00 | 0.00 | 0.00 | 50 | ||
| 20260504043810 | 27 | 0.0 | 0.0 | 0.00 | 0.00 | 0.00 | 46 | ||
| 20260504040810 | 27 | 0.0 | 0.0 | 0.00 | 0.00 | 0.00 | 47 | ||
| 20260504033809 | 26 | 0.0 | 0.0 | 0.00 | 0.00 | 0.00 | 54 | ||
| 20260504030809 | 25 | 0.0 | 0.0 | 0.00 | 0.00 | 0.00 | 60 | ||
| 20260504023806 | 24 | 0.0 | 0.0 | 0.00 | 0.00 | 0.00 | 66 | ||
| 20260504020810 | 22 | 0.0 | 0.0 | 0.00 | 0.00 | 0.00 | 72 | ||
| 20260504013809 | 21 | 0.0 | 0.0 | 0.00 | 0.00 | 0.00 | 79 | ||
| 20260504010809 | 21 | 0.0 | 0.0 | 0.00 | 0.00 | 0.00 | 82 | ||
| 20260504003806 | 20 | 0.0 | 0.0 | 0.00 | 0.00 | 0.00 | 83 | ||
| 20260504000804 | 20 | 0.0 | 0.0 | 0.00 | 0.00 | 0.00 | 83 | ||
| 20260503233806 | 20 | 0.0 | 0.0 | 0.00 | 0.00 | 0.00 | 82 | ||
| 20260503230805 | 21 | 0.0 | 0.0 | 0.00 | 0.00 | 0.00 | 82 | ||
| 20260503223804 | 22 | 0.0 | 0.0 | 0.00 | 0.00 | 0.00 | 83 | ||
| 20260503220805 | 22 | 0.0 | 0.0 | 0.00 | 0.00 | 0.00 | 85 | ||
| 20260503213804 | 22 | 0.0 | 0.0 | 0.00 | 0.00 | 0.00 | 85 | ||
| 20260503210806 | 22 | 0.0 | 0.0 | 0.00 | 0.00 | 0.00 | 83 |